Time,TemperatureF,DewpointF,PressureIn,WindDirection,WindDirectionDegrees,WindSpeedMPH,WindSpeedGustMPH,Humidity,HourlyPrecipIn,Conditions,Clouds,dailyrainin,SoftwareType,DateUTC
2013-04-09 00:10:00,43.1,39.0,30.19,WSW,252,0.0,-999.0,85,-99.99,,,0.00,weatherlink.com 1.10,2013-04-09 07:10:00,
2013-04-09 00:25:00,42.9,39.0,30.19,WSW,252,0.0,-999.0,85,-99.99,,,0.00,weatherlink.com 1.10,2013-04-09 07:25:00,
2013-04-09 00:40:00,42.8,38.0,30.19,WSW,252,0.0,-999.0,82,-99.99,,,0.00,weatherlink.com 1.10,2013-04-09 07:40:00,
2013-04-09 00:55:00,42.2,38.0,30.20,WSW,252,0.0,-999.0,84,-99.99,,,0.00,weatherlink.com 1.10,2013-04-09 07:55:00,
2013-04-09 01:10:00,42.1,38.0,30.20,WSW,252,0.0,-999.0,86,-99.99,,,0.00,weatherlink.com 1.10,2013-04-09 08:10:00,
2013-04-09 01:25:00,41.9,39.0,30.20,WSW,252,0.0,-999.0,88,-99.99,,,0.00,weatherlink.com 1.10,2013-04-09 08:25:00,
2013-04-09 01:40:00,41.8,39.0,30.20,WSW,252,0.0,-999.0,88,-99.99,,,0.00,weatherlink.com 1.10,2013-04-09 08:40:00,
2013-04-09 01:55:00,41.6,39.0,30.21,WSW,252,0.0,-999.0,89,-99.99,,,0.00,weatherlink.com 1.10,2013-04-09 08:55:00,
2013-04-09 02:10:00,41.6,38.0,30.20,WSW,252,0.0,-999.0,88,-99.99,,,0.00,weatherlink.com 1.10,2013-04-09 09:10:00,
2013-04-09 02:25:00,41.9,39.0,30.20,WSW,252,0.0,-999.0,88,-99.99,,,0.00,weatherlink.com 1.10,2013-04-09 09:25:00,
2013-04-09 02:40:00,42.2,39.0,30.20,WSW,252,0.0,-999.0,87,-99.99,,,0.00,weatherlink.com 1.10,2013-04-09 09:40:00,
2013-04-09 02:55:00,42.3,39.0,30.20,WSW,252,0.0,-999.0,88,-99.99,,,0.00,weatherlink.com 1.10,2013-04-09 09:55:00,
2013-04-09 03:10:00,42.3,39.0,30.20,WSW,252,0.0,-999.0,88,-99.99,,,0.00,weatherlink.com 1.10,2013-04-09 10:10:00,
2013-04-09 03:25:00,42.3,39.0,30.20,WSW,252,0.0,-999.0,88,-99.99,,,0.00,weatherlink.com 1.10,2013-04-09 10:25:00,
2013-04-09 03:40:00,42.2,39.0,30.19,WSW,252,0.0,-999.0,89,-99.99,,,0.00,weatherlink.com 1.10,2013-04-09 10:40:00,
2013-04-09 03:55:00,42.2,40.0,30.20,WSW,252,0.0,-999.0,90,-99.99,,,0.00,weatherlink.com 1.10,2013-04-09 10:55:00,
2013-04-09 04:10:00,42.2,40.0,30.21,WSW,252,0.0,-999.0,90,-99.99,,,0.00,weatherlink.com 1.10,2013-04-09 11:10:00,
2013-04-09 04:25:00,42.1,39.0,30.21,WSW,252,0.0,-999.0,90,-99.99,,,0.00,weatherlink.com 1.10,2013-04-09 11:25:00,
2013-04-09 04:40:00,41.9,40.0,30.21,WSW,252,0.0,-999.0,91,-99.99,,,0.00,weatherlink.com 1.10,2013-04-09 11:40:00,
2013-04-09 04:55:00,41.8,39.0,30.21,WSW,252,0.0,-999.0,91,-99.99,,,0.00,weatherlink.com 1.10,2013-04-09 11:55:00,
2013-04-09 05:10:00,41.9,40.0,30.22,WSW,252,0.0,-999.0,91,-99.99,,,0.00,weatherlink.com 1.10,2013-04-09 12:10:00,
2013-04-09 05:25:00,41.9,40.0,30.21,WSW,252,0.0,-999.0,91,-99.99,,,0.00,weatherlink.com 1.10,2013-04-09 12:25:00,
2013-04-09 05:40:00,41.6,39.0,30.21,WSW,252,0.0,-999.0,91,-99.99,,,0.00,weatherlink.com 1.10,2013-04-09 12:40:00,
2013-04-09 05:55:00,41.5,39.0,30.21,WSW,252,0.0,-999.0,91,-99.99,,,0.00,weatherlink.com 1.10,2013-04-09 12:55:00,
2013-04-09 06:10:00,41.2,39.0,30.22,WSW,252,0.0,-999.0,92,-99.99,,,0.00,weatherlink.com 1.10,2013-04-09 13:10:00,
2013-04-09 06:25:00,41.1,39.0,30.22,WSW,252,0.0,-999.0,93,-99.99,,,0.00,weatherlink.com 1.10,2013-04-09 13:25:00,
2013-04-09 06:40:00,41.1,39.0,30.22,WSW,252,0.0,-999.0,93,-99.99,,,0.00,weatherlink.com 1.10,2013-04-09 13:40:00,
2013-04-09 06:55:00,40.9,39.0,30.22,WSW,252,0.0,-999.0,92,-99.99,,,0.00,weatherlink.com 1.10,2013-04-09 13:55:00,
2013-04-09 07:10:00,40.9,39.0,30.22,WSW,252,0.0,-999.0,92,-99.99,,,0.00,weatherlink.com 1.10,2013-04-09 14:10:00,
2013-04-09 07:25:00,41.1,39.0,30.22,WSW,252,0.0,-999.0,93,-99.99,,,0.00,weatherlink.com 1.10,2013-04-09 14:25:00,
2013-04-09 07:55:00,41.8,40.0,30.22,WSW,252,0.0,-999.0,93,-99.99,,,0.00,weatherlink.com 1.10,2013-04-09 14:55:00,
2013-04-09 08:10:00,42.6,41.0,30.24,WSW,252,0.0,-999.0,93,-99.99,,,0.00,weatherlink.com 1.10,2013-04-09 15:10:00,
2013-04-09 08:25:00,43.5,41.0,30.23,WSW,252,0.0,-999.0,91,-99.99,,,0.00,weatherlink.com 1.10,2013-04-09 15:25:00,
2013-04-09 08:40:00,43.9,41.0,30.23,WSW,252,0.0,-999.0,89,-99.99,,,0.00,weatherlink.com 1.10,2013-04-09 15:40:00,
2013-04-09 08:55:00,44.3,40.0,30.23,WSW,252,0.0,-999.0,86,-99.99,,,0.00,weatherlink.com 1.10,2013-04-09 15:55:00,
2013-04-09 09:10:00,44.9,41.0,30.23,WSW,252,0.0,-999.0,85,-99.99,,,0.00,weatherlink.com 1.10,2013-04-09 16:10:00,
2013-04-09 09:25:00,45.5,41.0,30.23,North,5,0.0,-999.0,84,-99.99,,,0.00,weatherlink.com 1.10,2013-04-09 16:25:00,
2013-04-09 09:40:00,46.0,42.0,30.24,North,11,0.0,-999.0,85,-99.99,,,0.00,weatherlink.com 1.10,2013-04-09 16:40:00,
2013-04-09 09:55:00,46.4,42.0,30.24,NNE,24,1.0,-999.0,84,-99.99,,,0.00,weatherlink.com 1.10,2013-04-09 16:55:00,
2013-04-09 10:10:00,47.0,43.0,30.25,NNE,24,1.0,-999.0,85,-99.99,,,0.00,weatherlink.com 1.10,2013-04-09 17:10:00,
2013-04-09 10:25:00,47.0,42.0,30.25,NE,34,0.0,-999.0,84,-99.99,,,0.00,weatherlink.com 1.10,2013-04-09 17:25:00,
2013-04-09 10:40:00,47.7,43.0,30.25,NE,34,0.0,-999.0,84,-99.99,,,0.00,weatherlink.com 1.10,2013-04-09 17:40:00,
2013-04-09 10:55:00,48.3,43.0,30.25,NE,49,0.0,-999.0,82,-99.99,,,0.00,weatherlink.com 1.10,2013-04-09 17:55:00,
2013-04-09 11:10:00,49.1,44.0,30.24,NE,49,0.0,-999.0,82,-99.99,,,0.00,weatherlink.com 1.10,2013-04-09 18:10:00,
2013-04-09 11:25:00,49.1,44.0,30.25,ESE,121,0.0,-999.0,81,-99.99,,,0.00,weatherlink.com 1.10,2013-04-09 18:25:00,
2013-04-09 11:40:00,49.1,43.0,30.25,SE,126,0.0,-999.0,78,-99.99,,,0.00,weatherlink.com 1.10,2013-04-09 18:40:00,
2013-04-09 11:55:00,49.5,43.0,30.25,SE,125,0.0,-999.0,79,-99.99,,,0.00,weatherlink.com 1.10,2013-04-09 18:55:00,
2013-04-09 12:10:00,49.5,43.0,30.25,SE,144,0.0,-999.0,78,-99.99,,,0.00,weatherlink.com 1.10,2013-04-09 19:10:00,
2013-04-09 12:25:00,50.1,44.0,30.25,West,281,0.0,-999.0,78,-99.99,,,0.00,weatherlink.com 1.10,2013-04-09 19:25:00,
2013-04-09 12:40:00,51.1,44.0,30.24,WSW,252,0.0,-999.0,76,-99.99,,,0.00,weatherlink.com 1.10,2013-04-09 19:40:00,
2013-04-09 12:55:00,51.0,44.0,30.24,West,274,0.0,-999.0,76,-99.99,,,0.00,weatherlink.com 1.10,2013-04-09 19:55:00,
2013-04-09 13:10:00,51.6,45.0,30.23,NW,311,0.0,-999.0,77,-99.99,,,0.00,weatherlink.com 1.10,2013-04-09 20:10:00,
2013-04-09 13:25:00,51.6,44.0,30.23,NW,311,0.0,-999.0,74,-99.99,,,0.00,weatherlink.com 1.10,2013-04-09 20:25:00,
2013-04-09 13:40:00,51.7,45.0,30.23,WSW,239,0.0,-999.0,77,-99.99,,,0.00,weatherlink.com 1.10,2013-04-09 20:40:00,
2013-04-09 13:55:00,52.2,43.0,30.23,WSW,239,0.0,-999.0,72,-99.99,,,0.00,weatherlink.com 1.10,2013-04-09 20:55:00,
2013-04-09 14:10:00,52.3,42.0,30.23,WSW,240,0.0,-999.0,68,-99.99,,,0.00,weatherlink.com 1.10,2013-04-09 21:10:00,
2013-04-09 14:25:00,53.8,45.0,30.22,NNE,19,0.0,-999.0,71,-99.99,,,0.00,weatherlink.com 1.10,2013-04-09 21:25:00,
2013-04-09 14:40:00,53.6,44.0,30.23,WSW,257,0.0,-999.0,70,-99.99,,,0.00,weatherlink.com 1.10,2013-04-09 21:40:00,
2013-04-09 14:55:00,54.1,44.0,30.23,ENE,69,0.0,-999.0,68,-99.99,,,0.00,weatherlink.com 1.10,2013-04-09 21:55:00,
2013-04-09 15:10:00,54.8,43.0,30.22,NNE,22,0.0,-999.0,64,-99.99,,,0.00,weatherlink.com 1.10,2013-04-09 22:10:00,
2013-04-09 15:25:00,55.4,42.0,30.22,NNE,19,1.0,-999.0,61,-99.99,,,0.00,weatherlink.com 1.10,2013-04-09 22:25:00,
2013-04-09 15:40:00,55.6,42.0,30.22,ESE,120,0.0,-999.0,61,-99.99,,,0.00,weatherlink.com 1.10,2013-04-09 22:40:00,
2013-04-09 15:56:00,55.7,41.0,30.22,ESE,120,0.0,-999.0,59,-99.99,,,0.00,weatherlink.com 1.10,2013-04-09 22:56:00,
2013-04-09 16:10:00,56.2,44.0,30.21,ESE,120,0.0,-999.0,64,-99.99,,,0.00,weatherlink.com 1.10,2013-04-09 23:10:00,
2013-04-09 16:25:00,56.9,42.0,30.22,WNW,284,0.0,-999.0,58,-99.99,,,0.00,weatherlink.com 1.10,2013-04-09 23:25:00,
2013-04-09 16:40:00,56.5,44.0,30.21,NW,311,0.0,-999.0,63,-99.99,,,0.00,weatherlink.com 1.10,2013-04-09 23:40:00,
2013-04-09 16:55:00,57.3,45.0,30.20,ENE,67,1.0,-999.0,63,-99.99,,,0.00,weatherlink.com 1.10,2013-04-09 23:55:00,
2013-04-09 17:11:00,57.5,43.0,30.19,ENE,68,0.0,-999.0,58,-99.99,,,0.00,weatherlink.com 1.10,2013-04-10 00:11:00,
2013-04-09 17:25:00,56.7,45.0,30.19,South,190,0.0,-999.0,65,-99.99,,,0.00,weatherlink.com 1.10,2013-04-10 00:25:00,
2013-04-09 17:40:00,56.6,43.0,30.19,South,184,0.0,-999.0,61,-99.99,,,0.00,weatherlink.com 1.10,2013-04-10 00:40:00,
2013-04-09 17:55:00,56.9,45.0,30.19,SE,140,0.0,-999.0,64,-99.99,,,0.00,weatherlink.com 1.10,2013-04-10 00:55:00,
2013-04-09 18:10:00,56.7,44.0,30.19,SE,140,0.0,-999.0,63,-99.99,,,0.00,weatherlink.com 1.10,2013-04-10 01:10:00,
2013-04-09 18:25:00,56.6,44.0,30.19,SE,140,0.0,-999.0,62,-99.99,,,0.00,weatherlink.com 1.10,2013-04-10 01:25:00,
2013-04-09 18:40:00,56.2,44.0,30.19,SE,140,0.0,-999.0,65,-99.99,,,0.00,weatherlink.com 1.10,2013-04-10 01:40:00,
2013-04-09 18:55:00,55.7,45.0,30.19,SE,140,0.0,-999.0,68,-99.99,,,0.00,weatherlink.com 1.10,2013-04-10 01:55:00,
2013-04-09 19:10:00,55.3,46.0,30.18,SE,140,0.0,-999.0,70,-99.99,,,0.00,weatherlink.com 1.10,2013-04-10 02:10:00,
2013-04-09 19:26:00,54.8,46.0,30.17,SE,140,0.0,-999.0,72,-99.99,,,0.00,weatherlink.com 1.10,2013-04-10 02:26:00,
2013-04-09 19:41:00,54.4,45.0,30.16,SE,140,0.0,-999.0,71,-99.99,,,0.00,weatherlink.com 1.10,2013-04-10 02:41:00,
2013-04-09 19:55:00,54.1,45.0,30.16,SE,140,0.0,-999.0,71,-99.99,,,0.00,weatherlink.com 1.10,2013-04-10 02:55:00,
2013-04-09 20:11:00,53.3,45.0,30.17,SE,140,0.0,-999.0,73,-99.99,,,0.00,weatherlink.com 1.10,2013-04-10 03:11:00,
2013-04-09 20:25:00,52.9,45.0,30.16,SE,140,0.0,-999.0,74,-99.99,,,0.00,weatherlink.com 1.10,2013-04-10 03:25:00,
2013-04-09 20:41:00,52.6,45.0,30.17,SE,140,0.0,-999.0,76,-99.99,,,0.00,weatherlink.com 1.10,2013-04-10 03:41:00,
2013-04-09 20:55:00,52.5,45.0,30.17,SE,140,0.0,-999.0,77,-99.99,,,0.00,weatherlink.com 1.10,2013-04-10 03:55:00,
2013-04-09 21:10:00,52.5,45.0,30.17,SE,140,0.0,-999.0,77,-99.99,,,0.00,weatherlink.com 1.10,2013-04-10 04:10:00,
2013-04-09 21:27:00,52.3,45.0,30.17,SE,140,0.0,-999.0,77,-99.99,,,0.00,weatherlink.com 1.10,2013-04-10 04:27:00,
2013-04-09 21:41:00,52.0,45.0,30.17,SE,140,0.0,-999.0,78,-99.99,,,0.00,weatherlink.com 1.10,2013-04-10 04:41:00,
2013-04-09 21:56:00,51.9,46.0,30.18,SE,140,0.0,-999.0,79,-99.99,,,0.00,weatherlink.com 1.10,2013-04-10 04:56:00,
2013-04-09 22:10:00,51.7,45.0,30.18,SE,140,0.0,-999.0,79,-99.99,,,0.00,weatherlink.com 1.10,2013-04-10 05:10:00,
2013-04-09 22:25:00,51.7,45.0,30.18,SE,140,0.0,-999.0,79,-99.99,,,0.00,weatherlink.com 1.10,2013-04-10 05:25:00,
2013-04-09 22:41:00,51.3,45.0,30.18,SE,140,0.0,-999.0,80,-99.99,,,0.00,weatherlink.com 1.10,2013-04-10 05:41:00,
2013-04-09 22:56:00,51.4,45.0,30.17,SE,140,0.0,-999.0,79,-99.99,,,0.00,weatherlink.com 1.10,2013-04-10 05:56:00,
2013-04-09 23:11:00,50.7,45.0,30.15,SE,140,0.0,-999.0,82,-99.99,,,0.00,weatherlink.com 1.10,2013-04-10 06:11:00,
2013-04-09 23:26:00,49.5,46.0,30.15,SE,140,0.0,-999.0,87,-99.99,,,0.00,weatherlink.com 1.10,2013-04-10 06:26:00,
2013-04-09 23:41:00,49.4,45.0,30.15,SE,140,0.0,-999.0,85,-99.99,,,0.00,weatherlink.com 1.10,2013-04-10 06:41:00,
2013-04-09 23:56:00,49.8,45.0,30.14,SE,140,0.0,-999.0,84,-99.99,,,0.00,weatherlink.com 1.10,2013-04-10 06:56:00,